This demonstration page uses our WeatherBlox Daily Observations layout. Learn more.

Left ArrowRight Arrow

39.08367, -84.50855

Hourly Observations for March 2, 2019

Temp ( °F °C ) Dew Point ( °F °C ) Humidity (%) Winds ( mph kmh ) Pressure ( in mb ) Visibility ( mi km ) Precip ( " mm )
12:53 am 00:53 Cloudy 41 5 30 -1.1 65 65 NW 6 9 30.11 1020 10 16 N/A
1:53 am 01:53 Cloudy 39 3.9 26 -3.3 60 60 N N/A 30.12 1020 10 16 N/A
2:53 am 02:53 Cloudy 39 3.9 27 -2.8 62 62 NNW 3 6 30.14 1021 10 16 N/A
3:53 am 03:53 Cloudy 38 3.3 28 -2.2 68 68 N N/A 30.13 1020 10 16 N/A
4:53 am 04:53 Cloudy 38 3.3 27 -2.8 65 65 N N/A 30.12 1020 10 16 N/A
5:53 am 05:53 Cloudy 38 3.3 29 -1.7 70 70 N N/A 30.14 1021 10 16 N/A
6:53 am 06:53 Cloudy 38 3.3 29 -1.7 70 70 SW 5 7 30.14 1021 10 16 N/A
7:53 am 07:53 Cloudy 38 3.3 29 -1.7 70 70 SW 3 6 30.17 1022 10 16 N/A
8:53 am 08:53 Cloudy 39 3.9 30 -1.1 70 70 SW 5 7 30.19 1022 10 16 N/A
9:53 am 09:53 Cloudy 40 4.4 31 -0.6 70 70 W 8 13 30.21 1023 10 16 N/A
10:53 am 10:53 Cloudy 41 5 31 -0.6 67 67 WNW 7 11 30.21 1023 10 16 N/A
11:53 am 11:53 Cloudy 43 6.1 30 -1.1 60 60 WNW 6 9 30.18 1022 10 16 N/A
12:53 pm 12:53 Cloudy 43 6.1 30 -1.1 60 60 WNW 10 17 30.18 1022 10 16 N/A
1:53 pm 13:53 Cloudy 43 6.1 30 -1.1 60 60 NW 8 13 30.16 1021 10 16 N/A
2:53 pm 14:53 Cloudy 43 6.1 30 -1.1 60 60 N 9 15 30.16 1022 10 16 N/A
3:53 pm 15:53 Cloudy 42 5.6 29 -1.7 60 60 NW 9 15 30.19 1022 10 16 N/A
4:53 pm 16:53 Cloudy 43 6.1 28 -2.2 56 56 NW 8 13 30.19 1023 10 16 N/A
5:53 pm 17:53 Cloudy 42 5.6 28 -2.2 58 58 NW 7 11 30.20 1023 10 16 N/A
6:53 pm 18:53 Cloudy 41 5 28 -2.2 60 60 NNW 9 15 30.22 1023 10 16 N/A
7:53 pm 19:53 Cloudy 41 5 29 -1.7 62 62 N 7 11 30.21 1023 10 16 N/A
8:13 pm 20:13 Cloudy 40 4.4 30 -1.1 68 68 NE 8 13 30.22 1023 9 14 N/A
8:53 pm 20:53 Cloudy 39 3.9 30 -1.1 70 70 NE 6 9 30.20 1023 9 14 N/A
9:53 pm 21:53 Cloudy with Light Rain 38 3.3 31 -0.6 76 76 NE 7 11 30.20 1023 8 13 N/A
10:25 pm 22:25 Cloudy with Light Rain 37 2.8 32 undefined 82 82 NNE 7 11 30.22 1023 6 10 N/A
10:53 pm 22:53 Cloudy with Light Rain 36 2.2 32 undefined 86 86 NE 6 9 30.20 1023 6 10 0.01 0.25
11:06 pm 23:06 Cloudy with Light Rain 36 2.2 33 0.6 89 89 NE 6 9 30.21 1023 5 8 N/A
11:26 pm 23:26 Cloudy with Light Rain 36 2.2 33 0.6 89 89 NE 6 9 30.21 1023 5 8 0.01 0.25
11:39 pm 23:39 Cloudy with Light Rain 36 2.2 33 0.6 89 89 NNE 5 7 30.21 1023 5 8 0.01 0.25
11:53 pm 23:53 Cloudy with Light Rain 36 2.2 33 0.6 89 89 NNE 3 6 30.20 1023 5 8 0.01 0.25

Powered by AerisWeather